GAOFEN-12 03

Last updated on Sun Apr 12 2026 00:02:36 GMT+0000 (Coordinated Universal Time)

1 52912U 22069A 26101.52504089 .00001112 00000+0 15396-3 0 9992 2 52912 97.8356 351.0517 0001981 54.9331 305.2067 14.79930057204751
UTC large
Height (km)
Speed (km/s)
/
Latitude / Longitude
Inclination (degrees)
Orbital Period (minutes)
Azimuth
Elevation
Range (km)
Doppler Factor

Next 0 passes for location: London (51.5072 / 0.1276)

Sorry there are no passes over London.
GAOFEN-12 03